map of TAZ home
Great Circle Mapper logo
TAZ - Airport
Location
City:  Dashoguz, Dasoguz, Turkmenistan
Near (Alt.):Khodzhakumbet
Name:Dashoguz Airport
ICAO:UTAT
IATA:TAZ

Details
Type:Airport (Aerodrome, Airfield)
Use:Public/Civil, International (customs port of entry)
Latitude:4145'42"N (41.761667)
Longitude:5949'36"E (59.826667)
Elevation:279 ft (85 m)
Variation:6.24E (WMM2015 magnetic declination)
0.06 annual change
Runways:2
Longest:8858 × 138 ft (2700 × 42 m), paved

Time
Time Zone:UTC+5
Local Time:

Weather
METAR:UTAT 272100Z VRB04KT CAVOK 23/13 Q1011 NOSIG
TAF:UTAT 270430Z 2706/2806 35014KT 9999 SCT050 530005
TEMPO 2706/2712 28014KT

Related Locations
Nearby:
Farthest:IPC: 11257 mi / 18117 km
Easter Island (Isla de Pascua, Rapa Nui) [Mataveri Intl], VS, CL

Find:

   beyond  
but within

Other Information
Maps:
NOTAMs:
Links:
Sources:

  
flag of Turkmenistan   

Sectional Chart

Flight Planning
at skyvector.com

Satellite Image

Google Maps Satellite view

Yandex Maps Satellite view


 

Copyright © 2004-2016 Karl L. Swartz. All rights reserved.
The Great Circle Mapper name and logo are trademarks of the Great Circle Mapper.
All other trademarks mentioned herein belong to their respective owners.
Please see credits for attibutions and further copyright information.

  Follow gcmap on Facebook Follow gcmap on Twitter Follow gcmap on Google+ GCmap on LinkedIn

hCard Microformat

Geo Microformat